• In Netherlands
  • List of Countries
  • For 7 days
  • Water Temperature
  • Satellite Maps
  • Weather Map
  • Weather Widgets
  • user-avatar
    Login

    Hourly Weather Kiustendil

    Today, 19 January, Thursday

    Time Temperature Precipitation Wind Pressure Humidity
    00:00 -10°C° 0.3 mm 2 mps 625 mmHg 93%
    01:00 -10°C° 0 mm 2 mps 625 mmHg 94%
    02:00 -10°C° 0.7 mm 2 mps 625 mmHg 95%
    03:00 -10°C° 0.7 mm 2 mps 625 mmHg 95%
    04:00 -10°C° 0.7 mm 2 mps 625 mmHg 95%
    05:00 -12°C° 0.6 mm 2 mps 625 mmHg 96%
    06:00 -12°C° 0.6 mm 2 mps 625 mmHg 96%
    07:00 -10°C° 0 mm 1 mps 626 mmHg 96%
    08:00 -12°C° 0.3 mm 2 mps 626 mmHg 95%
    09:00 -10°C° 0.3 mm 2 mps 627 mmHg 95%
    10:00 -10°C° 0.3 mm 2 mps 627 mmHg 94%
    11:00 -9°C° 0.1 mm 2 mps 627 mmHg 94%
    12:00 -9°C° 0.1 mm 2 mps 628 mmHg 94%
    13:00 -6°C° 0 mm 1 mps 628 mmHg 94%
    14:00 -7°C° 0 mm 1 mps 628 mmHg 95%
    15:00 -7°C° 0 mm 1 mps 628 mmHg 95%
    16:00 -9°C° 0 mm 2 mps 627 mmHg 95%
    17:00 -10°C° 0 mm 2 mps 627 mmHg 95%
    18:00 -12°C° 0 mm 2 mps 627 mmHg 95%
    19:00 -13°C° 0 mm 2 mps 627 mmHg 95%
    20:00 -12°C° 0 mm 1 mps 627 mmHg 95%
    21:00 -13°C° 0 mm 1 mps 627 mmHg 95%
    22:00 -13°C° 0 mm 1 mps 627 mmHg 95%
    23:00 -14°C° 0 mm 1 mps 627 mmHg 95%

    Tomorrow, 20 January, Friday

    Time Temperature Precipitation Wind Pressure Humidity
    00:00 -14°C° 0 mm 1 mps 627 mmHg 95%
    01:00 -14°C° 0 mm 1 mps 627 mmHg 95%
    02:00 -15°C° 0 mm 1 mps 627 mmHg 94%
    03:00 -15°C° 0 mm 1 mps 627 mmHg 94%
    04:00 -15°C° 0 mm 1 mps 626 mmHg 94%
    05:00 -16°C° 0 mm 1 mps 626 mmHg 94%
    06:00 -16°C° 0 mm 1 mps 626 mmHg 94%
    07:00 -16°C° 0 mm 1 mps 626 mmHg 94%
    08:00 -14°C° 0 mm 1 mps 627 mmHg 92%
    09:00 -11°C° 0 mm 1 mps 629 mmHg 90%
    10:00 -8°C° 0 mm 1 mps 630 mmHg 87%
    11:00 -7°C° 0 mm 1 mps 630 mmHg 88%
    12:00 -7°C° 0 mm 1 mps 630 mmHg 89%
    13:00 -6°C° 0 mm 1 mps 630 mmHg 90%
    14:00 -7°C° 0 mm 1 mps 630 mmHg 92%
    15:00 -8°C° 0 mm 1 mps 629 mmHg 93%
    16:00 -9°C° 0 mm 1 mps 629 mmHg 95%
    17:00 -11°C° 0 mm 1 mps 628 mmHg 96%
    18:00 -12°C° 0 mm 1 mps 627 mmHg 96%
    19:00 -14°C° 0 mm 1 mps 627 mmHg 96%
    20:00 -14°C° 0 mm 1 mps 627 mmHg 96%
    21:00 -14°C° 0 mm 1 mps 627 mmHg 96%
    22:00 -14°C° 0 mm 1 mps 627 mmHg 96%
    23:00 -15°C° 0 mm 1 mps 626 mmHg 96%

    Day after tomorrow, 21 January, Saturday

    Time Temperature Precipitation Wind Pressure Humidity
    00:00 -15°C° 0 mm 1 mps 626 mmHg 96%
    01:00 -15°C° 0 mm 1 mps 626 mmHg 96%
    02:00 -15°C° 0 mm 1 mps 626 mmHg 96%
    03:00 -15°C° 0 mm 1 mps 626 mmHg 95%
    04:00 -16°C° 0 mm 1 mps 625 mmHg 95%
    05:00 -16°C° 0 mm 1 mps 625 mmHg 95%
    06:00 -16°C° 0 mm 1 mps 625 mmHg 94%
    07:00 -16°C° 0 mm 1 mps 625 mmHg 94%
    08:00 -13°C° 0 mm 1 mps 627 mmHg 91%
    09:00 -10°C° 0 mm 1 mps 628 mmHg 89%
    10:00 -7°C° 0 mm 1 mps 630 mmHg 86%
    11:00 -6°C° 0 mm 1 mps 629 mmHg 87%
    12:00 -6°C° 0 mm 1 mps 629 mmHg 88%
    13:00 -4°C° 0 mm 1 mps 629 mmHg 90%
    14:00 -7°C° 0 mm 1 mps 628 mmHg 92%
    15:00 -8°C° 0 mm 1 mps 628 mmHg 93%
    16:00 -10°C° 0 mm 1 mps 627 mmHg 95%
    17:00 -11°C° 0 mm 1 mps 627 mmHg 95%
    18:00 -12°C° 0 mm 1 mps 626 mmHg 95%
    19:00 -13°C° 0 mm 1 mps 626 mmHg 95%
    20:00 -14°C° 0 mm 1 mps 626 mmHg 95%
    21:00 -14°C° 0 mm 1 mps 626 mmHg 94%
    22:00 -14°C° 0 mm 1 mps 626 mmHg 93%
    23:00 -14°C° 0 mm 0 mps 626 mmHg 93%

    22 January, Sunday

    Time Temperature Precipitation Wind Pressure Humidity
    00:00 -14°C° 0 mm 0 mps 626 mmHg 92%
    01:00 -15°C° 0 mm 0 mps 626 mmHg 91%
    02:00 -15°C° 0 mm 0 mps 626 mmHg 91%
    03:00 -15°C° 0 mm 0 mps 626 mmHg 90%
    04:00 -15°C° 0 mm 0 mps 626 mmHg 90%
    05:00 -15°C° 0 mm 0 mps 626 mmHg 89%
    06:00 -15°C° 0 mm 0 mps 627 mmHg 89%
    07:00 -15°C° 0 mm 0 mps 627 mmHg 89%
    08:00 -12°C° 0 mm 0 mps 628 mmHg 88%
    09:00 -9°C° 0 mm 1 mps 630 mmHg 86%
    10:00 -6°C° 0 mm 1 mps 631 mmHg 85%
    11:00 -4°C° 0 mm 1 mps 631 mmHg 85%
    12:00 -4°C° 0 mm 1 mps 631 mmHg 86%
    13:00 -3°C° 0 mm 1 mps 631 mmHg 87%
    14:00 -6°C° 0 mm 1 mps 631 mmHg 90%
    15:00 -8°C° 0 mm 1 mps 630 mmHg 92%
    16:00 -9°C° 0 mm 1 mps 629 mmHg 95%
    17:00 -10°C° 0 mm 1 mps 629 mmHg 94%
    18:00 -11°C° 0 mm 1 mps 629 mmHg 94%
    19:00 -12°C° 0 mm 1 mps 628 mmHg 93%
    20:00 -12°C° 0 mm 1 mps 628 mmHg 92%
    21:00 -12°C° 0 mm 1 mps 628 mmHg 92%
    22:00 -12°C° 0 mm 1 mps 628 mmHg 92%
    23:00 -13°C° 0 mm 1 mps 628 mmHg 91%

    23 January, Monday

    Time Temperature Precipitation Wind Pressure Humidity
    00:00 -13°C° 0 mm 1 mps 628 mmHg 91%
    01:00 -13°C° 0 mm 1 mps 627 mmHg 91%
    02:00 -13°C° 0 mm 1 mps 627 mmHg 91%
    03:00 -13°C° 0 mm 1 mps 627 mmHg 91%
    04:00 -13°C° 0 mm 1 mps 626 mmHg 92%
    05:00 -13°C° 0 mm 1 mps 626 mmHg 92%
    06:00 -13°C° 0 mm 1 mps 626 mmHg 92%
    07:00 -13°C° 0 mm 1 mps 626 mmHg 93%
    08:00 -11°C° 0 mm 1 mps 627 mmHg 91%
    09:00 -8°C° 0 mm 1 mps 628 mmHg 89%
    10:00 -6°C° 0 mm 1 mps 629 mmHg 87%
    11:00 -6°C° 0 mm 2 mps 629 mmHg 87%
    12:00 -6°C° 0 mm 2 mps 628 mmHg 88%
    13:00 -5°C° 0 mm 2 mps 628 mmHg 88%
    14:00 -6°C° 0 mm 2 mps 627 mmHg 90%
    15:00 -6°C° 0 mm 1 mps 627 mmHg 92%
    16:00 -7°C° 0 mm 1 mps 626 mmHg 94%
    17:00 -8°C° 0 mm 1 mps 625 mmHg 94%
    18:00 -8°C° 0 mm 1 mps 625 mmHg 94%
    19:00 -9°C° 0 mm 1 mps 625 mmHg 94%
    20:00 -9°C° 0 mm 1 mps 624 mmHg 93%
    21:00 -9°C° 0 mm 1 mps 624 mmHg 93%
    22:00 -9°C° 0 mm 1 mps 623 mmHg 93%
    23:00 -9°C° 0 mm 1 mps 623 mmHg 93%

    24 January, Tuesday

    Time Temperature Precipitation Wind Pressure Humidity
    00:00 -9°C° 0 mm 1 mps 623 mmHg 92%
    01:00 -9°C° 0 mm 1 mps 623 mmHg 92%
    02:00 -9°C° 0.1 mm 1 mps 622 mmHg 93%
    03:00 -8°C° 0.1 mm 1 mps 622 mmHg 93%
    04:00 -8°C° 0.1 mm 1 mps 621 mmHg 94%
    05:00 -8°C° 0.1 mm 1 mps 621 mmHg 94%
    06:00 -8°C° 0.1 mm 1 mps 621 mmHg 94%
    07:00 -8°C° 0.1 mm 1 mps 621 mmHg 94%
    08:00 -7°C° 0.2 mm 1 mps 621 mmHg 93%
    09:00 -6°C° 0.2 mm 1 mps 621 mmHg 92%
    10:00 -4°C° 0.2 mm 1 mps 622 mmHg 92%
    11:00 -3°C° 0.2 mm 1 mps 621 mmHg 92%
    12:00 -4°C° 0.2 mm 0 mps 621 mmHg 93%
    13:00 -4°C° 0.2 mm 0 mps 620 mmHg 93%
    14:00 -4°C° 0.3 mm 0 mps 620 mmHg 94%
    15:00 -4°C° 0.3 mm 1 mps 620 mmHg 95%
    16:00 -4°C° 0.3 mm 1 mps 620 mmHg 95%
    17:00 -6°C° 0.3 mm 1 mps 620 mmHg 95%
    18:00 -6°C° 0.3 mm 1 mps 620 mmHg 95%
    19:00 -7°C° 0.3 mm 1 mps 620 mmHg 95%
    20:00 -7°C° 0.3 mm 1 mps 620 mmHg 96%
    21:00 -7°C° 0.3 mm 1 mps 620 mmHg 96%
    22:00 -7°C° 0.3 mm 1 mps 620 mmHg 96%
    23:00 -7°C° 0.3 mm 1 mps 620 mmHg 96%
    Show more